Hourly Data Report for October 10, 2018

VICTORIA UNIVERSITY CS
BRITISH COLUMBIA
Current Station Operator: ECCC - MSC

48°27'25.200" N
123°18'16.600" W
60.10 m
1018598
71783
WYJ

Download Data

Hourly Data (October 2018)
Hourly Data Report for October 10, 2018
TIME
LST
Temp Definition
°C
Dew Point Definition
°C
Rel Hum Definition
%
Precip. Amount Definition
mm

Wind Dir Definition
10's deg

Wind Spd Definition
km/h
Visibility Definition
km
Stn Press Definition
kPa
Hmdx Definition


Wind Chill Definition


Weather Definition


00:00 10.7 8.6 87 0.0 33 8   100.92     LegendNANA
01:00 9.5 8.0 91 0.0 0 1   100.92     LegendNANA
02:00 9.0 8.4 96 0.0 2 3   100.93     LegendNANA
03:00 9.2 8.4 95 0.0 0 1   100.93     LegendNANA
04:00 9.7 9.0 96 0.0 2 5   100.90     LegendNANA
05:00 9.1 8.0 93 0.0 32 4   100.91     LegendNANA
06:00 9.6 8.4 92 0.0 35 4   100.95     LegendNANA
07:00 9.4 8.3 93 0.0 36 5   100.97     LegendNANA
08:00 11.4 9.7 89 0.0 1 9   100.97     LegendNANA
09:00 11.8 8.9 82 0.0 1 11   101.03     LegendNANA
10:00 12.2 9.5 84 0.0 36 12   101.05     LegendNANA
11:00 12.3 9.1 81 0.0 36 9   101.05     LegendNANA
12:00 13.8 8.3 70 0.0 2 8   101.04     LegendNANA
13:00 14.1 7.5 65 0.0 2 11   101.02     LegendNANA
14:00 14.2 7.9 66 0.0 1 11   101.00     LegendNANA
15:00 14.9 8.5 66 0.0 1 7   100.96     LegendNANA
16:00 14.1 7.5 65 0.0 35 7   100.97     LegendNANA
17:00 13.5 7.5 67 0.0 33 3   101.00     LegendNANA
18:00 10.7 7.7 82 0.0 33 3   101.00     LegendNANA
19:00 10.4 8.5 88 0.0 31 5   101.02     LegendNANA
20:00 9.8 8.5 92 0.0 33 6   101.05     LegendNANA
21:00 10.2 8.9 92 0.0 35 7   101.07     LegendNANA
22:00 9.8 8.7 93 0.0 32 6   101.10     LegendNANA
23:00 8.8 7.7 93 0.0 33 3   101.13     LegendNANA

Notes on Data Quality.

Legend

  • E = Estimated
  • M = Missing
  • NA = Not Available*
  • [empty] = Indicates an unobserved value
Date modified: